User: anonymous   Login
Location: ???????
(55.4362°N, 38.1183°E)
Time: 18:27:33
(UTC+00:00)
Language:

Cosmos 2058 Rocket - Orbit

View from above orbital plane
View from above orbital plane
View from above satellite
View from above satellite

Ground track
Ground track

The orbit data is extracted from the following two-line orbital elements,

1 20466U 90010B   21263.99761443  .00000091  00000-0  86953-5 0  9991
2 20466  82.5066 355.7601 0018961 264.0971  95.8081 14.81438007707975
Epoch (UTC): 20 September 2021 23:56:33
Eccentricity: 0.0018961
inclination: 82.5066°
perigee height: 611 km
apogee height: 638 km
right ascension of ascending node: 355.7601°
argument of perigee: 264.0971°
revolutions per day: 14.81438007
mean anomaly at epoch: 95.8081°
orbit number at epoch: 70797

The dashed part of the orbit path shows where the satellite is in the earth's shadow,  

DLR